Flag for U.S.A. Weather past 2 weeks in Kalispell, Montana, U.S.A.

Now
22 °F

Clear.


Feels Like: 17 °F
Forecast: 6 / 36 °F
Wind: 3 mph from Southwest

Location: Kalispell - Glacier Park International

Current Time: Mar 3, 2015 at 8:49:20 PM

Latest Report: Mar 3, 2015 at 7:55 PM


Visibility: 10 mi

Pressure: 30.23 "Hg

Humidity: 62%

Dew point: 11 °F

Location of KalispellLocation

Historic Weather in Kalispell — Graph

°F

Kalispell temperature yesterday

Maximum temperature yesterday: 32 °F (at 2:55 PM)
Minimum temperature yesterday: 16 °F (at 5:55 AM)
Average temperature yesterday: 24 °F

Past Weeks' High & Low Weather Summary

 TemperatureHumidityPressure
High44 °F (Feb 19, 2:55 PM)97% (Feb 20, 5:55 PM)30.64 "Hg (Feb 20, 5:55 PM)
Low9 °F (Feb 22, 7:55 AM)22% (Feb 28, 1:55 PM)29.97 "Hg (Feb 27, 2:55 PM)
Average26 °F65%30.27 "Hg
* Reported Feb 16 6:55 PM — Mar 3 6:55 PM, Kalispell, Weather by CustomWeather, © 2015

Note: Actual official high and low records may vary slightly from our data, if they occured in-between our weather recording intervals... More about our weather records

Advertising

Kalispell weather history for previous 24 hours

 ConditionsComfort  
Time TempWeatherWind HumidityBarometerVisibility
6:55 PM
Tue, Mar 3
22 °FClear.6 mph62%30.22 "Hg10 mi
5:55 PM26 °FSunny.10 mph52%30.20 "Hg10 mi
4:55 PM26 °FSunny.12 mph48%30.19 "Hg10 mi
3:55 PM26 °FSunny.12 mph46%30.19 "Hg10 mi
2:55 PM27 °FSunny.6 mph35%30.18 "Hg10 mi
1:55 PM26 °FSunny.9 mph33%30.21 "Hg10 mi
12:55 PM26 °FSunny.No wind31%30.23 "Hg10 mi
11:55 AM23 °FSunny.6 mph35%30.26 "Hg10 mi
10:55 AM23 °FSunny.3 mph33%30.28 "Hg10 mi
9:55 AM20 °FSunny.7 mph40%30.28 "Hg10 mi
8:55 AM17 °FSunny.8 mph45%30.29 "Hg10 mi
7:55 AM11 °FSunny.5 mph61%30.29 "Hg10 mi
6:55 AM9 °FPassing clouds.7 mph64%30.30 "Hg10 mi
5:55 AM10 °FClear.5 mph64%30.29 "Hg10 mi
4:55 AM16 °FOvercast.8 mph51%30.28 "Hg10 mi
3:55 AM17 °FOvercast.9 mph47%30.27 "Hg10 mi
2:55 AM19 °FOvercast.12 mph47%30.26 "Hg10 mi
1:55 AM20 °FMostly cloudy.14 mph45%30.24 "Hg10 mi
12:55 AM20 °FOvercast.15 mph45%30.22 "Hg10 mi
11:55 PM
Mon, Mar 2
21 °FMostly cloudy.8 mph45%30.19 "Hg10 mi
10:55 PM23 °FOvercast.18 mph42%30.17 "Hg10 mi
9:55 PM24 °FPartly cloudy.20 mph44%30.16 "Hg10 mi
8:55 PM25 °FOvercast.15 mph46%30.14 "Hg10 mi
Weather by CustomWeather, © 2015

See weather overviewHow to use our weather pages